Regional Weather Roundup
Issued by NWS

Home | Current Version | Previous Version | Graphics & Text | Print | Product List | Glossary On
Versions: 1 2 3 4 5 6 7 8 9 10 11 12 13 14 15 16 17 18 19 20 21 22 23 24 25 26 27 28 29 30 31 32 33 34 35 36 37 38 39 40 41 42 43 44 45 46 47 48 49 50
603
ASUS45 KCYS 231310
RWRWY

WYOMING REGIONAL WEATHER ROUNDUP
NATIONAL WEATHER SERVICE CHEYENNE WY
600 AM MST MON JAN 23 2017

NOTE:  "FAIR" INDICATES FEW OR NO CLOUDS BELOW 12,000 FEET
WITH NO SIGNIFICANT WEATHER AND/OR OBSTRUCTIONS TO VISIBILITY.

WYZ001-231400-
YELLOWSTONE NATIONAL PARK

CITY           SKY/WX    TMP DP  RH WIND       PRES   REMARKS
LK YELLOWSTONE   N/A     11   9  92 CALM      29.58F
W YELLOWSTONE  NOT AVBL

$$
WYZ002>013-054>058-071-098>099-231400-
NORTHERN WYOMING

CITY           SKY/WX    TMP DP  RH WIND       PRES   REMARKS
JACKSON        CLOUDY    16  14  93 CALM      29.59F
CODY           FAIR      15  11  83 W3        29.58S
GREYBULL       FAIR      14  10  84 CALM      29.60S
WORLAND        FAIR      20  18  92 S8        29.59F WCI  10
SHERIDAN       FAIR      19  15  84 SW13      29.59F WCI   6
BUFFALO        FAIR      29  16  58 CALM      29.57F
GILLETTE       CLOUDY    31  25  78 VRB3      29.57F
HULETT         CLOUDY    28  19  69 CALM      29.61F
NEWCASTLE      LGT SNOW  28  27  93 E9        29.65F WCI  20

$$
WYZ014>020-022>026-101>103-231400-
CENTRAL WYOMING

CITY           SKY/WX    TMP DP  RH WIND       PRES   REMARKS
BIG PINEY      LGT SNOW  17  15  92 CALM      29.61F FOG
PINEDALE       LGT SNOW  16  14  93 NW3       29.61F
DUBOIS         NOT AVBL
LANDER         FAIR      16  12  84 CALM      29.57F
RIVERTON       CLOUDY    20  14  77 N6        29.59F WCI  12
CASPER         FAIR      28  23  81 W12       29.59F WCI  18
DOUGLAS        FAIR      32  22  66 N6        29.60F WCI  26

$$
WYZ021-027>030-104>119-231400-
SOUTHERN WYOMING

CITY           SKY/WX    TMP DP  RH WIND       PRES   REMARKS
EVANSTON       LGT SNOW  22  18  85 E10       29.53F FOG     WCI  11
ROCK SPRINGS   FAIR      23  17  78 SE9       29.59F WCI  13
RAWLINS        LGT SNOW  28  23  81 SW20      29.61F WCI  15
LARAMIE        FLURRIES  25  22  88 CALM      29.61F
CHEYENNE       FAIR      23  14  68 S7        29.61F WCI  15
TORRINGTON     FAIR      26  19  74 NE6       29.65F WCI  19

$$




USA.gov is the U.S. government's official web portal to all federal, state and local government web resources and services.